#timestamp,LO_Frequency,Hit,StdDev 
1526824815.9,286046999.7,N
1526824835.7,286047002.7,N
1526824855.5,286047002.8,N
1526824875.4,286046999.8,N
1526824895.2,286047000.3,N
1526824915.0,286047000.7,N
1526824915.9,286047000.7,N
1526824935.8,286047000.3,N
1526824955.6,286047000.4,N
1526824975.4,286047000.3,N
1526824995.2,286047000.2,N
1526825015.1,286046999.7,N
1526825016.0,286046999.7,N
1526825035.8,286047000.0,N
1526825055.6,286047000.2,N
1526825075.5,286046999.8,N
1526825095.3,286047002.6,N
1526825115.1,286047002.5,N
1526825135.9,286047002.1,N
1526825155.7,286047002.1,N
1526825175.5,286047001.9,N
1526825195.4,286047001.6,N
1526825215.2,286047001.9,N
1526825235.0,286047001.5,N
1526825235.9,286047001.5,N
1526825255.7,286047002.1,N
1526825275.6,286047004.3,Y
1526825295.4,286047000.1,P
1526825315.2,286047002.4,P
1526825335.1,286047002.2,N
1526825336.0,286047002.2,N
1526825355.8,286047001.6,N
1526825375.6,286047001.7,N
1526825395.5,286047002.2,N
1526825415.3,286047004.4,Y
1526825435.1,286047000.1,P
1526825455.9,286047002.2,N
1526825475.7,286047001.6,N
1526825495.5,286047002.2,N
1526825515.4,286047001.3,N
1526825535.2,286047001.6,N
1526825555.0,286047001.3,N
1526825555.9,286047001.3,N
1526825575.8,286047001.5,N
1526825595.6,286047001.4,N
1526825615.4,286047004.4,Y
1526825635.3,286047002.2,P
1526825655.1,286047002.2,P
1526825656.0,286047002.2,P
1526825675.8,286047002.5,Y
1526825695.7,286047000.7,P
1526825715.5,286047000.7,N
1526825735.3,286047001.0,N
1526825755.2,286047001.0,N
1526825775.9,286047000.0,N
1526825795.7,286046998.2,Y
1526825815.6,286046998.7,P
1526825835.4,286046998.9,N
1526825855.2,286046998.7,N
1526825875.1,286046996.5,Y
1526825876.0,286046996.5,P
1526825895.8,286047000.7,N
1526825915.6,286047001.1,N
1526825935.5,286047001.2,N
1526825955.3,286046998.1,N
1526825975.1,286046998.2,N
1526825995.9,286046998.6,N
1526826015.7,286047000.7,N
1526826035.5,286046998.3,N
1526826055.4,286046998.7,N
1526826075.2,286046998.7,N
1526826095.0,286046998.7,N
1526826095.9,286046998.7,N
1526826115.7,286046998.8,N
1526826135.6,286046998.9,N
1526826155.4,286046999.6,N
1526826175.2,286046999.2,N
1526826195.1,286046999.0,N
1526826196.0,286046999.0,N
1526826215.8,286046996.9,N
1526826235.6,286046997.7,N
1526826255.5,286046996.8,N
1526826275.3,286046996.8,N
1526826295.1,286046997.1,N
1526826315.9,286046997.8,N
1526826335.7,286046998.0,N
1526826355.5,286046995.0,Y
1526826375.4,286046997.7,P
1526826395.2,286046997.8,P
1526826415.0,286046996.6,P
1526826415.9,286046996.6,Y
1526826435.8,286046998.3,P
1526826455.6,286046999.1,P
1526826475.4,286046998.8,N
1526826495.3,286046998.8,N
1526826515.1,286046998.8,N
1526826516.0,286046998.8,N
1526826535.8,286046999.0,N
1526826555.7,286046999.3,N
1526826575.5,286046999.1,N
1526826595.3,286046998.9,N
1526826615.2,286046996.6,Y
1526826635.9,286046998.1,P
1526826655.7,286047000.8,N
1526826675.5,286046998.6,N
1526826695.4,286046998.4,N
1526826715.2,286046998.5,N
1526826735.0,286046999.0,N
1526826735.9,286046999.0,N
1526826755.8,286046999.4,N
1526826775.6,286046998.8,N
1526826795.4,286046998.6,N
1526826815.3,286046999.1,N
1526826835.1,286046997.0,Y
1526826855.8,286046998.7,P
1526826875.7,286046999.0,P
1526826895.5,286046998.8,P
1526826915.3,286046996.9,Y
1526826935.2,286046998.4,P
1526826955.0,286046998.5,P
1526826955.9,286046998.5,P
1526826975.7,286046998.7,Y
1526826995.6,286047001.1,P
1526827015.4,286046998.4,N
1526827035.2,286046999.0,N
1526827055.1,286046999.5,N
1526827056.0,286046999.5,N
1526827075.8,286046999.2,N
1526827095.6,286046996.9,Y
1526827115.5,286046999.2,P
1526827135.3,286046996.6,P
1526827155.1,286046999.6,N
1526827175.9,286046997.0,N
1526827195.7,286046997.8,N
1526827215.5,286046997.9,N
1526827235.4,286046997.6,N
1526827255.2,286046995.3,Y
1526827275.0,286046997.4,P
1526827275.9,286046997.4,P
1526827295.8,286046997.7,P
1526827315.6,286046997.3,Y
1526827335.4,286046998.2,P
1526827355.3,286046998.6,P
1526827375.1,286046998.4,P
1526827376.0,286046998.4,Y
1526827395.8,286046999.7,P
1526827415.7,286046999.8,N
1526827435.5,286047000.9,N
1526827455.3,286047001.2,N
1526827475.2,286046998.1,N
1526827495.9,286047000.7,N
1526827515.7,286046998.1,N
1526827535.6,286046998.4,N
1526827555.4,286046999.0,N
1526827575.2,286046999.6,N
1526827595.0,286046997.3,N
1526827595.9,286046997.3,N
1526827615.8,286046999.5,N
1526827635.6,286046997.3,N
1526827655.4,286046996.6,N
1526827675.3,286046996.8,N
1526827695.1,286046997.8,N
1526827715.8,286046998.0,N
1526827735.7,286046997.5,N
1526827755.5,286046995.4,Y
1526827775.3,286046996.7,P
1526827795.2,286046996.8,P
1526827815.9,286046997.1,P
1526827835.7,286046997.7,Y
1526827855.6,286047000.9,P
1526827875.4,286047001.0,N
1526827895.2,286047000.7,N
1526827915.1,286047000.8,N
1526827916.0,286047000.8,N
1526827935.8,286047001.1,N
1526827955.6,286047001.1,N
1526827975.5,286047001.2,N
1526827995.3,286046998.1,N
1526828015.1,286046999.9,N
1526828035.8,286047000.7,N
1526828055.7,286046998.3,N
1526828075.5,286046998.7,N
1526828095.3,286046999.1,N
1526828115.2,286046997.1,N
1526828135.9,286046997.3,N
1526828155.7,286046994.9,Y
1526828175.6,286046995.4,P
1526828195.4,286046998.5,N
1526828215.2,286047001.2,N
1526828235.1,286046999.7,N
1526828236.0,286046999.7,N
1526828255.8,286046998.9,N
1526828275.6,286046996.6,N
1526828295.5,286046996.7,N
1526828315.3,286046997.4,N
1526828335.1,286046997.6,N
1526828355.9,286046997.9,N
1526828375.7,286046998.0,N
1526828395.5,286046995.4,Y
